カタログに戻る

BREEZE-KM DEB

運用中PO
NORAD 41720·DEBRIS·🇷🇺 Russia

打ち上げ Mar 31, 2015 から Plesetsk Cosmodrome

Loading…

次のパス (今後24時間)

TLE

最新Source: Space-Track

元期: Sep 14, 2026, 06:17 UTC

1 41720U 15020H   26257.26225829  .00000053  00000-0  13612-3 0  9994
2 41720  82.4832  93.0658 0230147  27.6630 333.6502 12.91007639530227

AllMySatでBREEZE-KM DEBをリアルタイム追跡

Download on the App Store